Simultaneous Nadir Overpasses (SNOs) Predictions

Prediction of SNOs between AQUA and NOAA-19 Satellite Orbit:

Table of predicted SNOs for the next 14.0 days since TLE Epoch: 4/15/2014
Index Date (AQUA) Time (AQUA) Lat,Lon (AQUA) SZA (AQUA ) Date (NOAA-19) Time (NOAA-19) Lat,Lon (NOAA-19) SZA (NOAA-19 ) Distance(km) Time Diff (sec)
1 04/16/2014 10:29:01 -74.51,-164.34 115.63 04/16/2014 10:28:29 -74.50,-164.28 115.64 2.00 32
2 04/16/2014 11:18:01 73.07, 6.46 62.83 04/16/2014 11:18:59 73.06, 6.53 62.82 2.50 58
3 04/18/2014 15:13:27 -75.01, 123.33 115.86 04/18/2014 15:12:35 -75.01, 123.28 115.84 1.53 52
4 04/18/2014 16:02:25 73.49, -65.47 62.50 04/18/2014 16:03:03 73.48, -65.40 62.49 2.50 38
5 04/20/2014 19:57:50 -75.38, 51.24 116.21 04/20/2014 19:56:38 -75.40, 51.16 116.18 2.54 72
6 04/20/2014 20:46:53 74.14,-137.98 62.44 04/20/2014 20:47:12 74.14,-138.00 62.44 0.67 19
7 04/23/2014 01:31:15 74.52, 150.07 62.09 04/23/2014 01:31:15 74.52, 150.03 62.10 1.23 0
8 04/25/2014 06:15:33 74.71, 78.52 61.58 04/25/2014 06:15:14 74.71, 78.54 61.58 0.82 19
9 04/25/2014 07:03:19 -69.41,-104.22 123.88 04/25/2014 07:04:33 -69.52,-103.63 123.75 26.19 74
10 04/27/2014 10:59:54 75.10, 6.47 61.29 04/27/2014 10:59:17 75.10, 6.46 61.30 0.35 37




NCC Satellite Simultaneous Nadir Overpasses (SNOs) Prediction Service
